Preview of NWS' New Version of Forecast
This preview is not operational and should not be used for support decisions.
Latest weather observations around

Santa Ana, John Wayne Airport-Orange County Airport (KSNA)

Using English Units (Switch to International System of Units)
Date/ Time (PST) Wind (mph) Vis. (mi) Weather Sky Cond. Temp (°F) Rel. Humidity Wind Chill (°F) Heat Index (°F) Pressure Precip. (in)
Air Dwpt 6 hour Altimeter (inHg) Sea level (inHg) 1 hr 3 hr 6 hr
Max Min
Feb 19 06:53 Calm 10 Clear CLR 37 31     78%     30.12 30.12      
Feb 19 05:53 Calm 10 Clear CLR 38 32     79%     30.1 30.1      
Feb 19 04:53 Calm 10 Clear CLR 38 32     79%     30.09 30.09      
Feb 19 03:53 Calm 10 Clear   39 33     79%     30.09 30.09      
Feb 19 02:53 NNE 5 10 Clear CLR 39 33     79% 36   30.1 30.09      
Feb 19 01:53 Calm 10 Clear CLR 41 35     79%     30.11 30.1      
Feb 19 00:53 Calm 10 Clear CLR 42 35     76%     30.11 30.1      
Feb 18 23:53 NE 3 10 Clear CLR 42 36     79% 40   30.1 30.1      
Feb 18 22:53 Calm 10 Clear CLR 44 36     73%     30.1 30.09      
Feb 18 21:53 Calm 10 Clear CLR 47 35     63%     30.09 30.09     0
Feb 18 20:53 Calm 10 Clear CLR 48 35     61%     30.08 30.08      
Feb 18 19:53 NE 3 10 Clear CLR 48 36     63% 47   30.06 30.06      
Feb 18 18:53 Calm 10 Mostly Clear FEW095 50 36     58%     30.05 30.05   0  
Feb 18 17:53 Calm 10 Mostly Cloudy BKN050 BKN110 52 33     48%     30.02 30.02 0    
Feb 18 16:53 SSW 6 8 Light Rain FEW033 BKN042 BKN100 50 35     56%     30.03 30.03 0    
Feb 18 16:20   10 Light Rain FEW036 BKN044 OVC055 51 34     52%     30.04   0    
Feb 18 15:53 3 10 Mostly Cloudy SCT060 BKN080 BKN090 55 27     34%     30.02 30.01      
Feb 18 14:53 SW 10 10 Partly Cloudy SCT025 56 25     30%     30 30      
Feb 18 13:53 SW 9 10 Mostly Clear FEW025 56 26     31%     30.01 30.01      
Feb 18 12:53 SW 7 10 Mostly Clear FEW025 56 27     33%     30.03 30.03      
Feb 18 11:53 WSW 7 10 Mostly Clear FEW025 55 25     31%     30.05 30.05      
Feb 18 10:53 S 9 10 Mostly Clear FEW025 54 30     40%     30.06 30.06      
Feb 18 09:53 3 10 Mostly Clear FEW025 51 31     46%     30.07 30.06      
Feb 18 08:53 Calm 10 Mostly Clear FEW025 49 32     52%     30.07 30.07      
Feb 18 07:53 Calm 10 Mostly Clear FEW025 45 34     65%     30.06 30.06      
Feb 18 06:53 E 3 10 Mostly Clear FEW025 40 32     73% 38   30.04 30.03      
Feb 18 05:53 Calm 10 Clear CLR 41 32     70%     30.03 30.03      
Feb 18 04:53 Calm 10 Clear CLR 42 31     64%     30.02 30.01      
Feb 18 03:53 Calm 10 Clear CLR 44 30     58%     30.01 30.01     0
Feb 18 02:53 N 3 10 Clear CLR 46 29     51% 45   30.01 30.01      
Feb 18 01:53 W 3 10 Clear CLR 48 28     46% 47   30.02 30.01      
Feb 18 00:53 WNW 5 10 Clear   48 32     54% 46   30.01 30.01   0  
Feb 17 23:53 W 3 10 Clear CLR 49 36     61% 48   30.01 30.01      
Feb 17 22:53 W 3 10 Mostly Cloudy SCT048 BKN060 BKN110 49 39     69% 48   30.01 30.01 0    
Feb 17 21:53 W 10 10 Mostly Cloudy BKN037 BKN048 53 38     56%     30 30      
Feb 17 20:53 W 9 10 Mostly Cloudy BKN036 53 39     59%     29.99 29.99      
Feb 17 19:53 W 10 10 Partly Cloudy SCT036 53 39     59%     29.98 29.98      
Feb 17 18:53 W 13 10 Partly Cloudy SCT037 53 39     59%     29.97 29.97      
Feb 17 17:53 WSW 17 10 Cloudy BKN040 OVC049 54 38     55%     29.97 29.96      
Feb 17 16:53 WSW 11 10 Mostly Cloudy SCT034 BKN042 54 41     61%     29.96 29.96      
Feb 17 15:53 W 14 10 Mostly Clear FEW023 54 44     69%     29.98 29.97 0   0
Feb 17 14:53 W 10 10 Light Rain FEW023 BKN038 OVC060 54 44     69%     30 30 0    
Feb 17 13:53 W 8 10 Mostly Cloudy FEW019 BKN040 BKN100 54 46     74%     30.02 30.02 0    
Feb 17 12:53 WSW 10 10 Cloudy SCT055 BKN080 OVC095 56 39     53%     30.05 30.04      
Feb 17 11:53 W 13 10 Mostly Cloudy FEW048 BKN080 BKN110 57 35     44%     30.08 30.08      
Feb 17 10:53 WSW 7 10 Clear CLR 56 35     45%     30.1 30.1      
Feb 17 09:53 W 5 10 Mostly Clear FEW021 56 38     51%     30.1 30.09      
Feb 17 08:53 Calm 10 Clear CLR 52 37     57%     30.1 30.1      
Feb 17 07:53 Calm 10 Clear CLR 49 40     71%     30.09 30.09      
Feb 17 06:53 Calm 10 Clear CLR 46 39     76%     30.08 30.07      
Feb 17 05:53 NE 3 10 Clear CLR 47 38     71% 46   30.07 30.07      
Feb 17 04:53 Calm 10 Clear CLR 48 38     68%     30.06 30.06      
Feb 17 03:53 Calm 10 Clear CLR 49 39     69%     30.06 30.06      
Feb 17 03:21 Calm 10 Partly Cloudy SCT028 50 39     66%     30.07        
Feb 17 02:53 N 6 10 Mostly Cloudy BKN028 BKN034 51 40     65%     30.07 30.07      
Feb 17 02:17 Calm 10 Mostly Cloudy BKN027 52 40     63%     30.07        
Feb 17 02:01 Calm 10 Partly Cloudy SCT029 52 40     63%     30.07        
Feb 17 01:53 W 3 10 Mostly Cloudy BKN029 52 40     63%     30.08 30.07      
Feb 17 01:28 3 10 Mostly Cloudy BKN030 52 39     61%     30.08        
Feb 17 01:00 NW 6 10 Mostly Cloudy BKN029 53 40     61%     30.09        
Feb 17 00:53 6 10 Partly Cloudy SCT029 53 40     61%     30.09 30.09      
Feb 16 23:53 3 10 Clear CLR 53 41     63%     30.1 30.09      
Feb 16 22:53 5 10 Mostly Clear FEW040 54 42     64%     30.09 30.09      
Feb 16 21:53 W 7 10 Clear   54 41     61%     30.1 30.09      
Feb 16 20:53 W 9 10 Mostly Clear FEW055 55 42     62%     30.1 30.1      
Feb 16 19:53 W 8 10 Mostly Clear FEW200 55 44     66%     30.09 30.09      
Feb 16 18:53 W 8 10 Mostly Clear FEW180 56 43     62%     30.09 30.09      
Feb 16 17:53 W 6 10 Mostly Clear FEW045 FEW180 57 40     53%     30.08 30.08      
Feb 16 16:53 W 6 10 Mostly Clear FEW045 FEW060 FEW250 58 40     51%     30.08 30.08      
Feb 16 15:53 WSW 13 10 Mostly Clear FEW025 FEW055 FEW250 59 39     47%     30.08 30.08      
Feb 16 14:53 WSW 13 10 Mostly Clear FEW025 FEW060 FEW250 59 39     47%     30.07 30.07      
Feb 16 13:53 WSW 9 10 Mostly Clear FEW060 60 39     46%     30.08 30.08      
Feb 16 12:53 SW 13 10 Mostly Clear FEW060 60 37     42%     30.11 30.1      
Feb 16 11:53 SW 9 10 Partly Cloudy FEW050 SCT180 58 36     44%     30.13 30.13      
Feb 16 10:53 3 10 Clear CLR 57 32     39%     30.16 30.16      
Feb 16 09:53 5 10 Clear CLR 56 33     42%     30.15 30.15      
Feb 16 08:53 Calm 10 Clear CLR 53 36     52%     30.17 30.16      
Feb 16 07:53 3 10 Mostly Clear FEW018 51 37     59%     30.16 30.16      
May 14 17:53 W 8 10 Clear CLR 65 52     63%     29.94 29.94      
May 14 15:53 SW 9 10 Mostly Clear FEW029 67 51     57%     29.96 29.96      
May 14 08:53 3 10 Partly Cloudy SCT017 63 52     67%     29.99 29.99      
May 13 20:53 W 7 10 Clear CLR 61 54     78%     29.98 29.98      
May 13 14:53 SW 10 10 Partly Cloudy SCT044 69 50     51%     29.98 29.98      
May 12 18:53 S 10 10 Mostly Cloudy FEW043 BKN050 62 52     70%     29.96 29.96      
May 12 04:53 SE 3 8 Light Rain SCT013 BKN018 OVC025 57 55     93%     29.91 29.91 0   0
May 11 23:28 5 10 Cloudy BKN010 BKN015 OVC027 59 57     93%     29.9        
May 11 21:53 SE 8 8 Cloudy SCT013 BKN018 OVC036 60 56     86%     29.87 29.87      
May 11 18:53 SE 9 9 Cloudy FEW011 SCT022 OVC026 60 55     83%     29.82 29.82      
May 11 17:53 SSE 13 10 Cloudy SCT020 BKN024 OVC031 61 54     78%     29.83 29.82      
May 11 09:53 SSE 16 9 Cloudy SCT027 OVC030 65 52     63%     29.87 29.87      
Jun 11 23:53 W 7 10 Cloudy OVC037 63 53     70%     29.99 29.98      
Jun 11 19:53 S 8 10 Partly Cloudy FEW023 SCT028 SCT035 64 54     70%     29.93 29.93      
Jun 11 14:53 SSW 18 10 Partly Cloudy FEW033 SCT038 71 53     53%   70 29.92 29.91      
Jun 11 12:53 SSE 10 10 Mostly Cloudy SCT028 BKN036 69 53     57%     29.92 29.92      
Jun 11 07:53 ESE 8 10 Cloudy BKN022 BKN030 OVC035 62 56     80%     29.89 29.89      
Jun 08 14:53 W 9 9 Mostly Clear FEW027 FEW250 72 58     61%   72 29.98 29.97      
Jun 07 22:53 3 7 Cloudy FEW013 OVC015 63 57     81%     29.98 29.98      
Jun 07 19:53 SSW 9 8 Cloudy SCT013 OVC016 63 57     81%     29.96 29.96      
Jun 07 08:59 SW 5 4 Fog/Mist SCT007 BKN010 OVC014 62 60     93%     29.95        
Jun 06 12:53 SW 7 10 Cloudy OVC013 66 59     78%     29.95 29.95      
Jun 06 00:53 S 5 10 Cloudy OVC012 63 58     84%     29.9 29.89